When you browse on this site, cookies collect data to enhance your experience and personalize the content and advertising you see.
Visit our Privacy Policy to learn more. By continuing to use the site, you agree to this use of cookies and data.
  • In Latvia
  • List of Countries
  • For 7 days
  • Water Temperature
  • Satellite Maps
  • Weather Map
  • Weather Widgets
  • user-avatar
    Login

    Hourly Weather Iokogama

    Today, 21 February, Thursday

    Time Temperature Precipitation Wind Pressure Humidity
    00:00 +12°C° 0.4 mm 5 mps 756 mmHg 85%
    01:00 +10°C° 0.1 mm 5 mps 757 mmHg 79%
    02:00 +10°C° 0.1 mm 5 mps 757 mmHg 74%
    03:00 +10°C° 0 mm 4 mps 757 mmHg 69%
    04:00 +9°C° 0 mm 5 mps 758 mmHg 67%
    05:00 +8°C° 0 mm 5 mps 758 mmHg 64%
    06:00 +8°C° 0 mm 5 mps 758 mmHg 62%
    07:00 +8°C° 0 mm 5 mps 759 mmHg 58%
    08:00 +9°C° 0 mm 5 mps 759 mmHg 55%
    09:00 +10°C° 0 mm 4 mps 759 mmHg 52%
    10:00 +11°C° 0 mm 3 mps 759 mmHg 50%
    11:00 +12°C° 0 mm 3 mps 759 mmHg 47%
    12:00 +13°C° 0 mm 3 mps 759 mmHg 45%
    13:00 +13°C° 0 mm 3 mps 759 mmHg 43%
    14:00 +13°C° 0 mm 3 mps 759 mmHg 41%
    15:00 +13°C° 0 mm 3 mps 759 mmHg 35%
    16:00 +13°C° 0 mm 3 mps 759 mmHg 37%
    17:00 +13°C° 0 mm 2 mps 760 mmHg 39%
    18:00 +13°C° 0 mm 2 mps 760 mmHg 40%
    19:00 +12°C° 0 mm 2 mps 761 mmHg 43%
    20:00 +10°C° 0 mm 2 mps 761 mmHg 45%
    21:00 +11°C° 0 mm 1 mps 761 mmHg 48%
    22:00 +9°C° 0 mm 2 mps 761 mmHg 50%
    23:00 +9°C° 0 mm 2 mps 762 mmHg 52%

    Tomorrow, 22 February, Friday

    Time Temperature Precipitation Wind Pressure Humidity
    00:00 +8°C° 0 mm 3 mps 762 mmHg 53%
    01:00 +8°C° 0 mm 3 mps 762 mmHg 54%
    02:00 +8°C° 0 mm 3 mps 762 mmHg 55%
    03:00 +7°C° 0 mm 3 mps 762 mmHg 56%
    04:00 +7°C° 0 mm 3 mps 762 mmHg 56%
    05:00 +7°C° 0 mm 3 mps 762 mmHg 56%
    06:00 +7°C° 0 mm 3 mps 762 mmHg 56%
    07:00 +8°C° 0 mm 3 mps 762 mmHg 54%
    08:00 +9°C° 0 mm 3 mps 762 mmHg 52%
    09:00 +10°C° 0 mm 2 mps 762 mmHg 49%
    10:00 +12°C° 0 mm 2 mps 761 mmHg 49%
    11:00 +13°C° 0 mm 2 mps 761 mmHg 48%
    12:00 +14°C° 0 mm 2 mps 760 mmHg 47%
    13:00 +14°C° 0 mm 2 mps 759 mmHg 48%
    14:00 +15°C° 0 mm 2 mps 759 mmHg 48%
    15:00 +15°C° 0 mm 2 mps 758 mmHg 48%
    16:00 +14°C° 0 mm 2 mps 758 mmHg 54%
    17:00 +14°C° 0 mm 2 mps 758 mmHg 60%
    18:00 +13°C° 0 mm 2 mps 758 mmHg 66%
    19:00 +13°C° 0.1 mm 2 mps 758 mmHg 68%
    20:00 +12°C° 0.1 mm 2 mps 758 mmHg 69%
    21:00 +12°C° 0.1 mm 2 mps 758 mmHg 70%
    22:00 +11°C° 0.6 mm 3 mps 757 mmHg 73%
    23:00 +11°C° 0.6 mm 4 mps 756 mmHg 75%

    Day after tomorrow, 23 February, Saturday

    Time Temperature Precipitation Wind Pressure Humidity
    00:00 +10°C° 0.6 mm 5 mps 755 mmHg 77%
    01:00 +9°C° 1.5 mm 5 mps 755 mmHg 79%
    02:00 +8°C° 1.5 mm 6 mps 754 mmHg 81%
    03:00 +8°C° 1.5 mm 6 mps 754 mmHg 83%
    04:00 +8°C° 0.7 mm 7 mps 754 mmHg 81%
    05:00 +6°C° 0.7 mm 7 mps 754 mmHg 79%
    06:00 +6°C° 0.7 mm 7 mps 754 mmHg 77%
    07:00 +8°C° 0.1 mm 7 mps 754 mmHg 68%
    08:00 +8°C° 0.1 mm 7 mps 755 mmHg 60%
    09:00 +9°C° 0.1 mm 7 mps 755 mmHg 51%
    10:00 +10°C° 0 mm 7 mps 755 mmHg 46%
    11:00 +11°C° 0 mm 6 mps 756 mmHg 41%
    12:00 +11°C° 0 mm 6 mps 756 mmHg 36%
    13:00 +12°C° 0 mm 5 mps 756 mmHg 35%
    14:00 +12°C° 0 mm 4 mps 755 mmHg 34%
    15:00 +13°C° 0 mm 3 mps 755 mmHg 33%
    16:00 +12°C° 0.1 mm 3 mps 756 mmHg 34%
    17:00 +11°C° 0.1 mm 3 mps 757 mmHg 36%
    18:00 +10°C° 0.1 mm 3 mps 758 mmHg 37%
    19:00 +10°C° 0.1 mm 4 mps 759 mmHg 39%
    20:00 +8°C° 0.1 mm 4 mps 760 mmHg 40%
    21:00 +8°C° 0.1 mm 4 mps 761 mmHg 41%
    22:00 +7°C° 0 mm 4 mps 761 mmHg 42%
    23:00 +7°C° 0 mm 4 mps 762 mmHg 43%

    24 February, Sunday

    Time Temperature Precipitation Wind Pressure Humidity
    00:00 +7°C° 0 mm 4 mps 762 mmHg 44%
    01:00 +6°C° 0 mm 4 mps 762 mmHg 45%
    02:00 +6°C° 0 mm 4 mps 763 mmHg 46%
    03:00 +5°C° 0 mm 4 mps 763 mmHg 47%
    04:00 +5°C° 0 mm 3 mps 763 mmHg 48%
    05:00 +5°C° 0 mm 3 mps 764 mmHg 49%
    06:00 +4°C° 0 mm 3 mps 764 mmHg 50%
    07:00 +5°C° 0 mm 3 mps 764 mmHg 48%
    08:00 +7°C° 0 mm 3 mps 765 mmHg 45%
    09:00 +8°C° 0 mm 3 mps 765 mmHg 43%
    10:00 +9°C° 0 mm 2 mps 765 mmHg 43%
    11:00 +10°C° 0 mm 2 mps 764 mmHg 42%
    12:00 +12°C° 0 mm 2 mps 764 mmHg 42%
    13:00 +11°C° 0 mm 3 mps 763 mmHg 44%
    14:00 +12°C° 0 mm 3 mps 763 mmHg 46%
    15:00 +12°C° 0 mm 4 mps 763 mmHg 48%
    16:00 +11°C° 0 mm 4 mps 763 mmHg 53%
    17:00 +10°C° 0 mm 5 mps 763 mmHg 58%
    18:00 +9°C° 0 mm 5 mps 763 mmHg 63%
    19:00 +9°C° 0 mm 5 mps 764 mmHg 65%
    20:00 +9°C° 0 mm 5 mps 764 mmHg 68%
    21:00 +8°C° 0 mm 5 mps 764 mmHg 70%
    22:00 +8°C° 0 mm 5 mps 764 mmHg 72%
    23:00 +8°C° 0 mm 5 mps 764 mmHg 74%

    25 February, Monday

    Time Temperature Precipitation Wind Pressure Humidity
    00:00 +8°C° 0 mm 5 mps 764 mmHg 76%
    01:00 +8°C° 0 mm 5 mps 763 mmHg 76%
    02:00 +8°C° 0 mm 5 mps 763 mmHg 76%
    03:00 +7°C° 0 mm 5 mps 762 mmHg 76%
    04:00 +7°C° 0 mm 5 mps 762 mmHg 77%
    05:00 +7°C° 0 mm 5 mps 762 mmHg 77%
    06:00 +7°C° 0 mm 5 mps 762 mmHg 78%
    07:00 +9°C° 0 mm 5 mps 762 mmHg 73%
    08:00 +10°C° 0 mm 5 mps 762 mmHg 69%
    09:00 +13°C° 0 mm 5 mps 762 mmHg 64%
    10:00 +14°C° 0 mm 6 mps 761 mmHg 60%
    11:00 +15°C° 0 mm 6 mps 760 mmHg 55%
    12:00 +17°C° 0 mm 7 mps 760 mmHg 51%
    13:00 +17°C° 0.3 mm 7 mps 759 mmHg 54%
    14:00 +17°C° 0.3 mm 8 mps 759 mmHg 56%
    15:00 +16°C° 0.3 mm 8 mps 758 mmHg 58%
    16:00 +15°C° 0.2 mm 8 mps 758 mmHg 63%
    17:00 +14°C° 0.2 mm 7 mps 758 mmHg 68%
    18:00 +12°C° 0.2 mm 7 mps 758 mmHg 73%
    19:00 +13°C° 0.1 mm 6 mps 759 mmHg 71%
    20:00 +12°C° 0.1 mm 4 mps 759 mmHg 70%
    21:00 +12°C° 0.1 mm 3 mps 759 mmHg 68%
    22:00 +11°C° 0 mm 4 mps 759 mmHg 64%
    23:00 +11°C° 0 mm 4 mps 758 mmHg 60%

    26 February, Tuesday

    Time Temperature Precipitation Wind Pressure Humidity
    00:00 +10°C° 0 mm 5 mps 758 mmHg 56%
    01:00 +9°C° 0 mm 5 mps 758 mmHg 53%
    02:00 +9°C° 0 mm 5 mps 758 mmHg 49%
    03:00 +8°C° 0 mm 5 mps 758 mmHg 46%
    04:00 +8°C° 0 mm 4 mps 758 mmHg 47%
    05:00 +7°C° 0 mm 4 mps 759 mmHg 49%
    06:00 +8°C° 0 mm 3 mps 759 mmHg 50%
    07:00 +8°C° 0 mm 4 mps 760 mmHg 50%
    08:00 +10°C° 0 mm 4 mps 760 mmHg 49%
    09:00 +11°C° 0 mm 4 mps 761 mmHg 49%
    10:00 +12°C° 0 mm 4 mps 760 mmHg 49%
    11:00 +12°C° 0 mm 4 mps 760 mmHg 49%
    12:00 +13°C° 0 mm 3 mps 759 mmHg 48%
    13:00 +12°C° 0 mm 4 mps 759 mmHg 51%
    14:00 +11°C° 0 mm 4 mps 759 mmHg 55%
    15:00 +11°C° 0 mm 4 mps 759 mmHg 58%
    16:00 +10°C° 0.1 mm 4 mps 759 mmHg 61%
    17:00 +10°C° 0.1 mm 4 mps 760 mmHg 64%
    18:00 +10°C° 0.1 mm 4 mps 760 mmHg 67%
    19:00 +8°C° 0.2 mm 5 mps 761 mmHg 70%
    20:00 +8°C° 0.2 mm 5 mps 761 mmHg 72%
    21:00 +7°C° 0.2 mm 5 mps 762 mmHg 75%
    22:00 +7°C° 0.1 mm 5 mps 762 mmHg 73%
    23:00 +7°C° 0.1 mm 5 mps 762 mmHg 71%
    Show more